Location: Holkham
(52.9500°N, 0.8167°E)
Time: 06:13:24
(UTC+00:00)

Cosmos 2298 Rocket - Pass Details

Date: 19 May 2025
Orbit: 773 x 782 km, 74.0° (Epoch: 18 June)

Event Time Altitude Azimuth Distance (km) Brightness Sun altitude
Rises 21:15:36 0° 334° (NNW) 3,282 9.2 -9.5°
Reaches altitude 10° 21:18:01 10° 336° (NNW) 2,350 8.0 -9.7°
Maximum altitude 21:23:22 75° 62° (ENE) 814 4.1 -10.2°
Enters shadow 21:27:58 14° 148° (SSE) 2,063 5.5 -10.6°
